Location: Shepherdstown, WV
(39.4326°N, 77.8042°W)
Time: 04:58:35
(UTC-04:00)

SR - Pass Details

Date: 07 August 2021
Orbit: 581 x 874 km, 66.7° (Epoch: 24 September)

Event Time Altitude Azimuth Distance (km) Brightness Sun altitude
Rises 04:46:56 0° 186° (S) 3,443 - -15.8°
Exits shadow 04:48:51 - 181° (S) 2,752 ? -15.6°
Reaches altitude 10° 04:49:35 10° 178° (S) 2,498 ? -15.4°
Maximum altitude 04:54:56 39° 112° (ESE) 1,240 ? -14.6°
Drops below altitude 10° 05:00:04 10° 45° (NE) 2,397 ? -13.8°
Sets 05:02:33 0° 37° (NE) 3,289 ? -13.4°
